Tracking 29892 objects as of 21-Nov-2024
HD Live streaming from Space Station
objects crossing your sky now

COSMOS 1818 COOLANT

Track COSMOS 1818 COOLANT now!
10-day predictions


NORAD ID: 36941
Int'l Code: 1987-011V
Perigee: 755.7 km
Apogee: 785.2 km
Inclination: 65.0 °
Period: 100.1 minutes
Semi major axis: 7141 km
RCS: 0.0022 m2 (small)
Launch date: February 1, 1987
Source: Commonwealth of Independent States (former USSR) (CIS)
Launch site: TYURATAM MISSILE AND SPACE COMPLEX (TTMTR)

Note: This is SATELLITE DEBRIS
Your satellite tracking list
Your tracking list is empty




NASA's NSSDC Master Catalog

Two Line Element Set (TLE):
1 36941U 87011V   24324.36195021  .00001927  00000-0  66032-3 0  9991
2 36941  65.0046 351.3996 0020671 257.9266 101.9506 14.38543991260798
Source of the keplerian elements: AFSPC